Location: Unspecified
(47.4992°N, 121.7766°W)
Time: 19:09:11
(UTC-08:00)

Okean 3 - Visible Passes

Search period start: 18 February 2020 00:00
Search period end: 28 February 2020 00:00
Orbit: 577 x 601 km, 82.5° (Epoch: 18 February)

Date Brightness Start Highest point End Pass type
(mag) Time Alt. Az. Time Alt. Az. Time Alt. Az.
20 Feb 6.0 20:12:47 10° N 20:13:15 13° N 20:13:15 13° N visible
21 Feb 5.7 20:20:34 10° N 20:21:32 16° N 20:21:32 16° N visible
22 Feb 5.5 20:28:26 10° N 20:29:53 21° NNW 20:29:53 21° NNW visible
23 Feb 5.3 19:00:19 10° NNE 19:01:44 14° NE 19:01:44 14° NE visible
23 Feb 5.3 20:36:22 10° NNW 20:38:18 26° NNW 20:38:18 26° NNW visible
24 Feb 4.9 19:07:39 10° NNE 19:10:14 20° NE 19:10:14 20° NE visible
24 Feb 5.3 20:44:24 10° NNW 20:46:49 28° NW 20:46:49 28° NW visible
25 Feb 4.3 19:15:11 10° N 19:18:50 29° ENE 19:18:50 29° ENE visible
25 Feb 5.5 20:52:31 10° NNW 20:55:25 25° WNW 20:55:25 25° WNW visible
26 Feb 3.8 19:22:51 10° N 19:26:52 42° ENE 19:27:34 38° ESE visible
26 Feb 5.9 21:00:49 10° NW 21:03:48 19° W 21:04:10 19° W visible
27 Feb 3.4 19:30:36 10° N 19:34:48 61° ENE 19:36:29 33° SE visible
27 Feb 6.4 21:09:27 10° NW 21:11:29 13° W 21:13:06 11° WSW visible
